Weather History for Melbourne, FL

Change the Weather History Date:

Friday, August 22, 2014

  Actual Average Record
Temperature  
Mean Temperature 86 °F 82 °F  
Max Temperature 93 °F 90 °F 96 °F (1982)
Min Temperature 78 °F 73 °F 67 °F (1973)
Degree Days  
Heating Degree Days 0 0  
Month to date heating degree days 0 0  
Since 1 June heating degree days 0 0  
Since 1 July heating degree days 0 0  
Cooling Degree Days 21 17  
Month to date cooling degree days 416 374  
Year to date cooling degree days 2320 2078  
Since 1 June cooling degree days 1427 1352  
Growing Degree Days 34 (Base 50)    
Moisture  
Dew Point 75 °F    
Average Humidity 74    
Maximum Humidity 91    
Minimum Humidity 56    
Precipitation  
Precipitation 0.00 in 0.25 in 1.74 in (1972)
Month to date precipitation 3.61 5.44  
Year to date precipitation 37.09 31.61  
Sea Level Pressure  
Sea Level Pressure 30.04 in    
Wind  
Wind Speed 6 mph (SSE)    
Max Wind Speed 14 mph    
Max Gust Speed 17 mph    
Visibility 10 miles    
Events      
T = Trace of Precipitation, MM = Missing Value Source: NWS Daily Summary

Daily Weather History Graph

Daily Weather History Graph

Search for Another Location

Airport:

Trip Planner

Search our weather history database for the weather conditions in past years. The results will help you decide how hot, cold, wet, or windy it might be!

Date:

Astronomy

Aug. 22, 2014 Rise Set
Actual Time 6:56 AM EDT 7:54 PM EDT
Civil Twilight 6:31 AM EDT 8:18 PM EDT
Nautical Twilight 6:03 AM EDT 8:47 PM EDT
Astronomical Twilight 5:33 AM EDT 9:16 PM EDT
Moon 4:23 AM EDT (8/22) 5:57 PM EDT (8/22)
Length of Visible Light 13h 46m
Length of Day
12h 58m
Waning Crescent, 8% of the Moon is Illuminated
Aug 22
Waning Crescent
Aug 25
New
Sep 2
First Quarter
Sep 8
Full
Sep 15
Last Quarter

Hourly Weather History & Observations

Time (EDT) Temp. Heat Index Dew Point Humidity Pressure Visibility Wind Dir Wind Speed Gust Speed Precip Events Conditions
1:53 AM 78.1 °F - 75.0 °F 90% 30.09 in 10.0 mi WSW 4.6 mph - N/A   Clear
2:53 AM 78.1 °F - 75.9 °F 93% 30.06 in 10.0 mi SSW 3.5 mph - N/A   Clear
3:53 AM 79.0 °F - 75.9 °F 90% 30.05 in 10.0 mi South 3.5 mph - N/A   Clear
5:53 AM 78.1 °F - 75.9 °F 93% 30.06 in 10.0 mi Calm Calm - N/A   Clear
6:53 AM 78.1 °F - 75.9 °F 93% 30.06 in 10.0 mi South 4.6 mph - N/A   Clear
7:53 AM 80.1 °F 85.8 °F 77.0 °F 90% 30.08 in 10.0 mi South 3.5 mph - N/A   Clear
8:53 AM 82.9 °F 91.8 °F 77.0 °F 82% 30.08 in 10.0 mi SSW 4.6 mph - N/A   Clear
9:53 AM 87.1 °F 97.3 °F 75.9 °F 69% 30.08 in 10.0 mi WSW 4.6 mph - N/A   Clear
11:53 AM 91.0 °F 99.3 °F 73.0 °F 55% 30.08 in 10.0 mi Variable 4.6 mph - N/A   Partly Cloudy
12:53 PM 91.0 °F 102.9 °F 75.9 °F 61% 30.06 in 10.0 mi Variable 5.8 mph - N/A   Scattered Clouds
1:53 PM 91.0 °F 101.6 °F 75.0 °F 59% 30.05 in 10.0 mi ESE 10.4 mph - N/A   Scattered Clouds
2:53 PM 91.0 °F 101.6 °F 75.0 °F 59% 30.03 in 10.0 mi East 10.4 mph - N/A   Scattered Clouds
3:53 PM 90.0 °F 100.2 °F 75.0 °F 61% 30.02 in 10.0 mi East 12.7 mph - N/A   Scattered Clouds
5:53 PM 89.1 °F 97.0 °F 73.0 °F 59% 29.99 in 10.0 mi ESE 12.7 mph - N/A   Clear
6:53 PM 87.1 °F 93.6 °F 72.0 °F 61% 29.99 in 10.0 mi SE 8.1 mph - N/A   Clear
7:53 PM 84.9 °F 91.4 °F 73.0 °F 67% 30.00 in 10.0 mi SSE 5.8 mph - N/A   Clear
8:53 PM 82.9 °F 90.2 °F 75.0 °F 77% 30.01 in 10.0 mi South 3.5 mph - N/A   Clear
9:53 PM 82.0 °F 87.9 °F 73.9 °F 76% 30.02 in 10.0 mi Calm Calm - N/A   Clear
10:53 PM 82.0 °F 88.6 °F 75.0 °F 79% 30.02 in 10.0 mi South 4.6 mph - N/A   Clear
11:53 PM 80.1 °F 85.1 °F 75.0 °F 85% 30.02 in 10.0 mi SSW 4.6 mph - N/A   Clear